Abilene, TX

3:54 AM CDT on March 26, 2017 (GMT -0500)
Abilene Regional

Weather History for KABI - February, 2014

Change the Weather History Date:

Monday, February 24, 2014

  Actual Average Record
Temperature  
Mean Temperature 49 °F 51 °F  
Max Temperature 62 °F 63 °F 91 °F (1918)
Min Temperature 35 °F 39 °F 14 °F (1889)
Degree Days  
Heating Degree Days 16 15  
Month to date heating degree days 489 409  
Since 1 July heating degree days 2286 2078  
Cooling Degree Days 0 0  
Month to date cooling degree days 5 0  
Year to date cooling degree days 5 1  
Moisture  
Dew Point 34 °F    
Average Humidity 60    
Maximum Humidity 76    
Minimum Humidity 44    
Precipitation  
Precipitation 0.00 in 0.04 in 1.77 in (1992)
Month to date precipitation 0.47 1.14  
Year to date precipitation 0.47 2.16  
Sea Level Pressure  
Sea Level Pressure 30.06 in    
Wind  
Wind Speed 4 mph (NNE)    
Max Wind Speed 13 mph    
Max Gust Speed 16 mph    
Visibility 10 miles    
Events      
T = Trace of Precipitation, MM = Missing Value Source: NWS Daily Summary

Daily Weather History Graph

Daily Weather History Graph

Search for Another Location

Airport or City:

Trip Planner

Search our weather history database for the weather conditions in past years. The results will help you decide how hot, cold, wet, or windy it might be!

Date:

Astronomy

Feb. 24, 2014 Rise Set
Actual Time 7:11 AM CST 6:32 PM CST
Civil Twilight 6:47 AM CST 6:57 PM CST
Nautical Twilight 6:18 AM CST 7:25 PM CST
Astronomical Twilight 5:50 AM CST 7:54 PM CST
Moon 3:02 AM CST (2/24) 1:45 PM CST (2/24)
Length of Visible Light 12h 09m
Length of Day
11h 20m
Waning Crescent, 28% of the Moon is Illuminated
Feb 24
Waning Crescent
Mar 1
New
Mar 8
First Quarter
Mar 16
Full
Mar 23
Last Quarter

Hourly Weather History & Observations

Time (CST) Temp. Windchill Dew Point Humidity Pressure Visibility Wind Dir Wind Speed Gust Speed Precip Events Conditions
12:52 AM 39.9 °F 37.8 °F 30.0 °F 68% 30.09 in 10.0 mi North 3.5 mph - N/A   Clear
1:52 AM 42.1 °F 39.2 °F 30.0 °F 62% 30.10 in 10.0 mi North 4.6 mph - N/A   Clear
2:52 AM 37.9 °F - 30.0 °F 73% 30.09 in 10.0 mi Calm Calm - N/A   Clear
3:52 AM 37.9 °F - 28.9 °F 70% 30.08 in 10.0 mi Calm Calm - N/A   Mostly Cloudy
4:04 AM 39.0 °F - 28.9 °F 67% 30.09 in 10.0 mi Calm Calm - N/A   Scattered Clouds
4:34 AM 37.9 °F - 30.9 °F 76% 30.08 in 10.0 mi Calm Calm - N/A   Mostly Cloudy
4:52 AM 39.0 °F 35.7 °F 30.0 °F 70% 30.06 in 10.0 mi NNW 4.6 mph - N/A   Overcast
5:20 AM 39.0 °F 34.0 °F 30.0 °F 70% 30.09 in 10.0 mi North 6.9 mph - N/A   Overcast
5:52 AM 39.0 °F 34.0 °F 28.9 °F 67% 30.08 in 10.0 mi North 6.9 mph - N/A   Overcast
6:42 AM 39.0 °F 34.8 °F 28.9 °F 67% 30.09 in 10.0 mi NNE 5.8 mph - N/A   Overcast
6:52 AM 39.0 °F 35.7 °F 28.9 °F 67% 30.10 in 10.0 mi North 4.6 mph - N/A   Mostly Cloudy
7:09 AM 39.0 °F 34.8 °F 28.9 °F 67% 30.11 in 10.0 mi NNW 5.8 mph - N/A   Scattered Clouds
7:33 AM 39.9 °F 35.8 °F 28.9 °F 65% 30.14 in 10.0 mi NNW 5.8 mph - N/A   Mostly Cloudy
7:52 AM 39.9 °F 37.8 °F 28.9 °F 65% 30.14 in 10.0 mi NNW 3.5 mph - N/A   Overcast
8:43 AM 42.1 °F 40.2 °F 30.0 °F 62% 30.15 in 10.0 mi NE 3.5 mph - N/A   Overcast
8:52 AM 42.1 °F - 30.0 °F 62% 30.15 in 10.0 mi Calm Calm - N/A   Overcast
9:52 AM 44.1 °F 42.5 °F 30.9 °F 60% 30.16 in 10.0 mi North 3.5 mph - N/A   Overcast
10:52 AM 46.0 °F - 30.9 °F 56% 30.15 in 10.0 mi Calm Calm - N/A   Overcast
11:52 AM 48.0 °F - 32.0 °F 54% 30.14 in 10.0 mi NNW 3.5 mph - N/A   Overcast
12:52 PM 53.1 °F - 34.0 °F 48% 30.10 in 10.0 mi Calm Calm - N/A   Overcast
1:52 PM 55.0 °F - 36.0 °F 49% 30.05 in 10.0 mi WNW 3.5 mph - N/A   Overcast
2:14 PM 55.9 °F - 37.0 °F 49% 30.05 in 10.0 mi Variable 3.5 mph - N/A   Scattered Clouds
2:26 PM 55.9 °F - 37.0 °F 49% 30.04 in 10.0 mi Calm Calm - N/A   Mostly Cloudy
2:52 PM 59.0 °F - 37.9 °F 46% 30.02 in 10.0 mi Calm Calm - N/A   Mostly Cloudy
2:59 PM 61.0 °F - 37.9 °F 42% 30.03 in 10.0 mi Calm Calm - N/A   Clear
3:47 PM 60.8 °F - 41.0 °F 48% 30.01 in 9.0 mi SE 5.8 mph - N/A   Mostly Cloudy
3:52 PM 60.1 °F - 41.0 °F 49% 30.00 in 9.0 mi ESE 6.9 mph - N/A   Mostly Cloudy
4:52 PM 60.1 °F - 41.0 °F 49% 29.99 in 10.0 mi ENE 6.9 mph - N/A   Mostly Cloudy
5:03 PM 60.1 °F - 41.0 °F 49% 30.00 in 10.0 mi East 6.9 mph - N/A   Clear
5:52 PM 59.0 °F - 42.1 °F 53% 29.97 in 10.0 mi East 6.9 mph - N/A   Clear
6:52 PM 54.0 °F - 37.9 °F 55% 29.99 in 10.0 mi East 8.1 mph - N/A   Clear
7:52 PM 52.0 °F - 37.0 °F 57% 29.99 in 10.0 mi East 11.5 mph - N/A   Clear
8:52 PM 50.0 °F - 36.0 °F 59% 30.01 in 10.0 mi ESE 6.9 mph - N/A   Clear
9:52 PM 48.9 °F - 36.0 °F 61% 30.01 in 10.0 mi East 8.1 mph - N/A   Clear
10:52 PM 46.9 °F - 37.0 °F 68% 30.02 in 10.0 mi Calm Calm - N/A   Clear
11:52 PM 46.0 °F 41.9 °F 37.9 °F 73% 30.01 in 10.0 mi SE 8.1 mph - N/A   Clear